Home > Weather > Xi'an > Past weeks

Flag for China Weather for the Past 2 Weeks in Xi'an, Shaanxi, China

Now
82 °F

Passing clouds.


Feels Like: 81 °F
Forecast: 63 / 89 °F
Wind: 10 mph from Northeast

Location: Xian/Xianyang

Current Time: May 4, 2016 at 2:07:17 PM

Latest Report: May 4, 2016 at 1:00 PM


Visibility: N/A

Pressure: 29.62 "Hg

Humidity: 30%

Dew Point: 48 °F

Location of Xi'anLocation

Historic Weather in Xi'an — Graph

°F

Xi'an Temperature Yesterday

Maximum temperature yesterday: 81 °F (at 4:00 PM)
Minimum temperature yesterday: 45 °F (at 4:00 AM)
Average temperature yesterday: 63 °F

High & Low Weather Summary for the Past Weeks

 TemperatureHumidityPressure
High91 °F (May 1, 4:00 PM)100% (Apr 27, 5:00 AM)30.15 "Hg (Apr 27, 5:00 AM)
Low45 °F (May 3, 4:00 AM)17% (May 3, 4:00 PM)29.50 "Hg (May 1, 4:00 PM)
Average67 °F56%29.85 "Hg
* Reported Apr 19 12:00 Noon — May 4 12:00 Noon, Xi'an, Weather by CustomWeather, © 2016

Note: Actual official high and low records may vary slightly from our data, if they occured in-between our weather recording intervals... More about our weather records

Advertising

Xi'an Weather History for the Previous 24 Hours

Scroll right to see more
 ConditionsComfort  
Time TempWeatherWind HumidityBarometerVisibility
12:00 PM
Wed, May 4
79 °FSunny.13 mph28%29.65 "Hg10 mi
11:00 AM77 °FPassing clouds.10 mph30%29.68 "HgN/A
10:00 AM73 °FPassing clouds.10 mph31%29.71 "HgN/A
9:00 AM70 °FSunny.10 mph35%29.71 "Hg10 mi
8:00 AM64 °FSunny.1 mph46%29.71 "Hg10 mi
7:00 AM55 °FSunny.No wind67%29.71 "Hg10 mi
6:00 AM48 °FClear.No wind76%29.68 "Hg10 mi
5:00 AM50 °FClear.No wind76%29.68 "Hg10 mi
4:00 AM54 °FClear.1 mph63%29.68 "Hg10 mi
3:00 AM52 °FClear.1 mph72%29.68 "Hg10 mi
2:00 AM55 °FClear.3 mph63%29.68 "Hg10 mi
1:00 AM54 °FClear.1 mph67%29.71 "Hg10 mi
12:00 AM55 °FClear.1 mph63%29.71 "Hg10 mi
11:00 PM
Tue, May 3
55 °FClear.1 mph63%29.74 "Hg10 mi
10:00 PM59 °FClear.1 mph51%29.74 "Hg10 mi
9:00 PM63 °FClear.3 mph42%29.74 "Hg10 mi
8:00 PM66 °FSunny.6 mph37%29.71 "Hg10 mi
7:00 PM73 °FSunny.1 mph29%29.71 "Hg10 mi
6:00 PM79 °FPassing clouds.3 mph21%29.71 "HgN/A
5:00 PM79 °FSunny.3 mph18%29.74 "Hg10 mi
4:00 PM81 °FPassing clouds.3 mph17%29.74 "HgN/A
3:00 PM79 °FSunny.3 mph18%29.77 "Hg10 mi
2:00 PM77 °FSunny.3 mph19%29.83 "Hg10 mi
Weather by CustomWeather, © 2016

See weather overviewHow to use our weather pages